Temp
18 18 18 18 18 19 19 19 19 19 19 19 19 19 20 20 20 20 20 20 20 20 20 20 20 20 20 20 20 20 20 20 20 19 18 17 18 19 19 20 20 21 22 22 22 22 22 21 20 21 22 21 18 19 19 18 18 18 17 15 15 14 14 15 15 15 14 14 12 10 9 8 7 7 8 7 6 5 5 4 4 4 4 4 4 4 4 5
18 18 18 19 19 19 19 19 19 19 19 19 19 20 20 20 20 20 20 20 20 20 20 20 20 20 20 20 20 20 20 20 20 18 18 18 19 19 20 20 21 22 22 22 22 21 20 20 19 20 20 19 18 19 19 18 18 17 15 15 15 14 14 15 15 14 15 13 11 10 9 9 9 8 8 7 5 5 5 4 4 4 4 4 4 4 5 5
18 18 19 19 19 19 19 19 19 19 19 19 19 20 20 20 20 20 20 20 20 20 20 20 20 20 20 20 20 20 20 20 19 18 18 18 19 20 20 21 21 22 23 23 22 21 20 20 20 20 20 19 18 19 19 18 17 15 15 15 14 14 15 15 15 14 14 12 12 11 10 10 9 8 8 7 5 5 5 4 4 4 3 3 3 4 5 5
18 19 19 19 19 19 19 19 19 19 19 19 20 20 20 19 19 19 19 20 20 20 20 20 20 21 21 21 21 20 20 20 19 18 18 18 19 19 20 20 21 22 23 23 22 21 21 20 20 20 19 18 18 18 18 17 17 16 15 15 14 14 15 14 14 14 13 12 12 10 10 10 8 8 7 6 7 6 5 5 6 5 4 3 3 3 4 4
18 19 19 19 19 19 19 19 19 19 19 19 20 20 20 19 19 19 19 20 20 20 20 21 21 21 21 21 21 20 20 20 19 18 18 18 19 19 20 20 21 22 23 23 22 22 22 21 20 20 19 18 18 18 17 17 17 16 15 15 14 14 14 14 13 13 12 11 11 10 11 10 8 7 6 7 10 8 6 6 6 5 3 3 3 3 4 4
19 19 19 19 19 19 19 19 19 19 19 20 20 20 20 19 19 19 19 20 20 20 20 21 21 20 20 20 20 20 20 19 18 18 18 18 19 19 20 20 21 22 23 23 22 21 21 20 20 19 18 17 17 17 17 16 16 15 14 14 14 14 14 14 13 13 12 12 12 11 10 8 7 8 6 6 8 7 5 4 4 4 3 4 3 3 3 3
19 19 19 19 19 19 19 19 19 19 19 20 20 20 20 19 19 20 20 20 20 20 20 21 21 21 20 20 20 19 18 17 17 18 18 18 19 20 20 20 20 22 22 21 20 19 19 19 19 18 17 17 16 16 16 16 16 16 14 14 14 14 15 13 12 12 13 13 11 9 9 8 8 8 6 5 5 5 4 3 4 4 3 3 3 2 2 2
19 19 19 19 19 19 19 19 19 19 19 20 20 19 19 19 20 20 20 20 21 21 21 21 21 21 21 21 20 18 17 17 17 18 18 18 19 20 20 20 20 21 20 19 18 18 18 19 18 18 18 17 17 17 16 16 16 15 14 14 14 14 13 12 11 11 11 10 8 8 9 8 7 7 6 5 5 4 3 3 3 3 3 2 2 2 2 2
19 19 19 19 19 19 19 19 19 20 20 20 20 20 20 20 20 20 20 20 21 21 21 22 22 21 21 20 19 18 17 17 17 18 18 19 19 19 20 20 20 20 19 18 18 19 19 19 18 18 18 16 16 16 16 16 17 16 15 14 14 14 12 11 11 10 10 8 8 9 7 6 6 6 6 4 5 4 3 3 2 2 3 2 1 1 2 2
19 19 19 19 19 19 19 20 20 20 20 20 20 20 20 20 20 20 20 20 20 21 21 22 22 21 21 19 19 19 18 18 18 18 18 19 19 19 20 20 20 20 18 18 18 18 18 18 17 17 17 17 16 16 16 16 16 15 15 14 14 14 13 13 12 10 10 8 9 10 7 5 6 6 7 5 4 4 3 3 2 3 4 3 1 1 2 2
19 19 19 19 20 20 20 20 20 20 20 20 20 20 20 20 21 20 20 20 20 21 21 21 21 21 20 18 18 18 18 18 18 18 18 19 19 19 19 19 19 20 18 17 17 17 17 18 16 16 18 17 16 16 16 16 15 15 15 15 14 14 14 13 13 10 11 9 8 9 7 5 6 6 7 5 4 4 4 4 3 3 3 3 2 1 2 2
19 19 19 19 20 20 20 19 19 20 20 20 20 21 21 21 21 21 21 20 20 21 21 21 21 20 19 17 17 17 18 18 18 18 19 19 19 19 19 19 19 19 19 17 16 17 18 18 18 18 17 16 16 16 16 15 15 15 15 15 14 14 14 14 13 12 12 11 7 8 8 7 7 7 6 5 4 4 4 4 3 3 3 3 2 1 1 2
19 19 19 19 19 19 20 19 19 20 20 20 20 20 21 21 21 21 21 20 20 20 20 20 20 20 20 18 17 18 18 18 18 19 19 19 19 19 19 19 19 18 19 17 17 17 18 18 18 17 15 16 16 15 16 15 15 15 14 14 14 14 14 14 13 12 13 11 7 9 11 10 8 6 5 4 4 4 4 4 3 3 3 2 2 1 1 1
19 19 19 19 19 19 19 19 20 20 19 20 20 20 21 21 21 21 21 21 21 20 20 20 20 20 19 18 18 18 18 18 18 19 19 19 19 19 19 19 19 18 18 18 18 17 17 18 17 15 14 14 15 15 15 14 15 15 13 13 12 12 14 13 12 12 13 10 8 10 11 11 9 5 4 4 4 4 4 3 3 3 2 2 2 2 1 1
19 19 19 19 19 19 19 19 20 19 20 20 20 20 20 21 21 21 21 21 21 21 21 20 20 20 18 17 18 18 18 18 18 18 18 19 19 19 19 19 19 18 18 18 18 18 17 16 15 15 14 13 14 15 15 13 13 13 14 14 11 11 12 12 12 12 12 10 9 11 11 11 9 6 5 4 4 4 4 3 3 3 2 2 2 2 2 1
19 19 19 19 19 20 20 19 19 19 20 20 20 20 21 21 21 21 21 21 21 21 21 20 20 20 19 18 18 18 18 18 18 18 18 18 19 18 19 19 19 18 18 18 18 18 17 15 13 13 13 13 12 13 14 14 13 11 12 14 12 11 11 11 12 11 11 11 11 11 10 11 10 6 5 4 4 4 4 3 3 3 2 2 2 2 2 2
19 19 19 19 20 20 19 19 19 19 20 20 20 20 20 21 21 21 21 21 21 21 21 20 19 19 19 18 18 18 17 17 17 18 18 18 19 18 19 19 18 18 18 18 18 17 15 14 13 13 12 11 10 12 15 16 14 12 11 12 11 10 10 10 11 10 10 11 10 10 9 10 10 6 5 4 4 4 4 3 3 3 2 2 2 2 2 2
19 19 19 19 20 19 19 19 19 19 20 20 20 20 20 20 21 21 21 21 21 21 21 20 19 20 20 18 18 17 17 17 17 18 18 19 19 18 19 18 17 18 18 17 16 15 14 13 13 13 12 11 10 11 14 14 13 12 11 11 11 9 10 10 10 10 10 10 10 10 10 11 9 5 4 5 4 4 4 3 3 3 3 3 2 2 3 3
19 19 19 19 19 19 19 19 20 20 20 20 20 20 20 20 20 20 20 20 20 20 20 18 17 19 19 17 17 17 17 17 17 17 17 18 18 18 18 17 16 16 18 17 15 14 13 13 12 12 12 11 10 10 12 12 11 12 11 10 10 9 9 9 10 10 9 9 10 10 10 10 9 6 5 5 4 4 4 3 3 3 3 3 3 3 3 3
19 19 19 20 20 19 19 20 20 21 20 20 20 20 20 20 20 19 17 17 16 16 17 16 16 17 17 16 16 17 17 18 17 16 17 17 18 18 17 16 16 16 16 15 15 13 12 13 12 12 12 11 11 10 10 10 9 10 10 10 10 10 9 9 10 9 9 9 9 10 10 9 9 7 5 4 4 4 4 3 3 3 3 3 3 3 3 3
19 19 20 20 20 20 20 20 21 21 20 20 20 20 20 20 20 19 16 16 15 14 16 15 15 16 16 16 16 16 17 18 17 16 17 17 17 18 16 15 18 17 14 13 14 13 12 13 12 12 11 10 10 10 10 10 9 9 10 10 10 10 10 9 9 9 9 9 9 9 9 9 9 8 5 5 4 4 4 4 3 3 3 3 3 3 4 3
19 20 20 20 20 20 20 20 20 20 19 20 20 19 17 17 19 18 17 17 16 15 16 15 16 17 16 16 16 16 16 18 18 16 16 17 17 18 16 14 16 16 13 13 14 14 13 13 13 11 10 10 10 10 11 11 10 10 10 10 10 10 9 9 9 9 9 8 9 9 8 8 9 7 5 4 5 5 4 4 4 4 4 3 3 4 4 3
20 20 20 20 20 20 20 20 20 20 20 21 20 18 17 17 18 18 18 18 17 16 16 16 16 16 16 17 16 16 16 16 17 16 15 16 16 16 15 15 14 14 13 14 16 17 15 13 12 11 11 12 12 11 11 10 10 10 10 10 10 9 9 9 9 9 8 7 8 9 8 8 8 6 5 5 4 5 5 4 4 4 4 4 4 4 3 3
20 20 20 20 20 21 20 20 20 20 20 21 20 18 18 18 18 18 18 17 18 17 16 16 15 16 16 16 16 16 16 15 15 16 15 15 15 14 15 15 14 14 13 13 15 15 15 13 12 12 12 12 12 11 10 10 11 9 9 10 10 9 9 9 8 8 8 8 7 8 9 9 7 6 6 5 4 4 5 4 4 3 4 4 3 3 3 3
20 20 20 20 21 21 20 20 20 20 20 20 19 18 18 18 18 19 18 18 18 18 16 16 15 15 16 16 16 15 15 15 15 15 15 14 14 14 15 14 14 14 12 12 14 14 13 12 11 12 12 11 11 11 10 9 10 10 10 10 10 10 9 8 8 7 9 10 9 8 10 10 8 6 7 5 4 4 4 4 4 4 3 3 3 3 3 2
20 20 20 21 21 21 21 21 20 20 20 19 19 18 18 19 18 19 19 19 20 18 17 17 17 16 16 16 15 14 16 17 15 15 15 14 14 14 15 13 13 14 12 12 13 13 12 11 11 12 12 11 11 11 10 9 10 11 12 10 9 9 8 8 7 7 9 10 9 8 9 9 8 8 8 5 4 4 4 4 3 3 3 3 2 2 3 2
21 21 21 21 21 21 21 21 20 20 20 19 19 19 19 19 19 19 19 20 20 18 17 17 17 17 16 15 14 15 18 17 15 15 14 14 14 13 15 14 13 13 11 12 14 13 12 11 12 12 11 12 12 11 10 9 10 12 12 10 9 8 8 8 7 7 8 8 8 8 8 8 8 9 6 4 4 4 3 4 3 3 3 2 2 2 2 2
21 21 21 21 21 21 21 21 21 20 19 19 19 19 19 19 19 19 20 20 19 17 17 17 17 17 16 15 14 15 16 15 16 16 14 14 14 14 16 15 13 13 10 12 16 13 11 12 12 12 11 12 12 11 10 9 10 12 11 9 8 8 7 7 7 7 7 8 9 8 8 8 9 9 4 2 5 5 4 4 3 3 3 2 2 2 2 2
21 21 21 21 21 21 21 21 21 20 20 20 19 19 19 19 18 19 20 20 18 17 16 16 17 16 15 15 15 14 14 14 15 15 13 14 14 13 15 13 12 13 10 12 15 13 10 11 11 11 11 12 12 11 9 9 10 10 10 9 9 7 7 7 6 8 7 8 10 9 8 8 9 9 7 4 6 6 6 5 4 3 3 2 2 2 2 1
21 21 21 21 21 21 21 21 20 20 20 19 19 19 18 19 19 19 20 19 18 17 16 16 16 15 15 16 16 14 14 15 14 14 13 13 13 12 12 11 12 13 12 11 13 11 9 9 9 10 11 11 11 10 9 9 10 10 10 9 9 7 7 7 7 8 8 10 10 8 8 8 8 9 8 7 8 9 8 7 5 4 3 2 2 2 2 1
21 21 21 21 20 20 20 20 20 20 19 19 19 18 18 19 19 20 20 18 18 17 16 16 15 14 14 16 16 14 14 14 13 14 15 13 13 12 12 13 13 14 14 13 13 10 9 10 10 10 10 9 10 10 9 7 8 10 9 8 10 10 9 9 8 8 10 12 10 6 7 7 7 10 10 8 8 8 8 8 7 6 4 3 2 1 2 1
20 21 21 21 20 20 20 19 19 19 19 19 18 18 19 19 19 20 19 17 18 17 17 16 14 14 14 14 15 14 13 14 13 13 13 12 11 10 11 12 12 15 17 15 13 12 11 10 9 9 9 9 10 11 10 9 9 10 9 8 10 11 10 11 10 9 10 12 9 6 7 7 7 10 11 9 8 7 7 7 7 7 6 4 2 1 2 1
20 20 20 20 20 19 19 18 18 18 18 18 18 18 20 20 20 19 18 18 18 15 14 14 13 13 14 15 15 13 12 14 13 12 11 10 11 10 9 9 8 13 16 13 12 14 14 10 8 10 10 9 10 12 11 11 10 10 9 9 10 10 10 11 10 9 10 10 8 6 7 8 9 10 10 10 10 8 6 6 6 6 6 5 3 2 2 1
18 18 19 19 18 18 18 18 18 18 18 18 19 20 20 20 19 17 17 17 15 13 13 13 13 13 14 15 14 12 13 14 12 12 12 12 13 13 11 10 8 10 13 12 11 12 14 14 12 11 11 10 10 10 11 10 9 9 8 8 10 10 10 10 10 10 9 8 7 7 8 9 11 12 11 10 9 6 4 4 3 3 3 3 2 2 1 0
18 18 18 18 17 17 17 17 17 18 18 18 20 20 20 20 19 18 18 16 13 13 13 12 13 15 15 14 13 11 13 14 12 12 13 13 13 13 12 11 9 9 11 13 12 10 13 15 12 9 9 9 10 9 8 9 9 8 7 8 10 9 9 9 8 8 7 6 6 6 8 9 10 11 8 6 6 5 3 3 2 2 2 1 1 1 0 -1
18 17 17 17 17 17 17 17 17 17 18 19 20 20 19 19 18 17 16 14 14 15 14 14 14 16 16 15 14 12 12 13 12 13 13 12 12 11 10 10 9 8 10 13 12 11 14 14 10 8 9 9 9 8 8 9 10 8 8 9 8 6 8 8 7 5 4 6 6 7 9 8 9 10 7 4 5 6 4 4 3 2 2 1 1 1 -0 -1
18 17 17 16 16 17 17 17 18 18 17 19 20 19 17 16 15 14 12 11 12 13 15 17 16 16 17 17 15 13 12 12 13 14 14 12 12 11 10 9 8 8 8 10 11 11 12 14 10 8 10 8 6 8 7 7 8 9 9 9 6 6 7 6 6 6 5 6 7 6 8 8 8 10 8 6 7 7 5 4 3 2 1 1 1 1 0 0
17 17 17 16 17 17 17 18 18 18 18 19 19 17 15 14 12 10 10 10 12 13 15 18 17 15 16 17 16 13 13 14 14 14 14 13 13 12 10 9 8 7 7 7 10 10 10 13 11 7 9 9 6 8 9 7 6 8 8 7 7 8 8 6 7 7 6 6 7 6 7 7 7 9 10 10 9 9 7 5 4 3 3 2 2 1 1 0
17 17 17 17 17 17 17 18 17 17 19 19 20 18 14 12 10 8 8 9 11 14 15 16 15 14 15 15 16 14 12 14 14 14 15 14 13 12 10 10 8 7 7 6 9 10 8 12 13 8 7 8 8 8 10 8 7 7 7 7 7 8 7 7 6 6 6 6 6 7 7 8 9 10 11 11 10 9 8 6 6 5 4 3 2 2 1 0
16 18 18 16 17 17 17 18 18 19 19 17 17 16 12 11 10 7 6 8 11 13 14 15 14 15 15 13 14 13 12 13 13 14 15 13 13 12 9 9 9 7 6 6 8 9 8 10 13 10 7 8 10 10 10 11 9 8 8 8 7 7 6 6 5 4 6 6 6 6 7 10 11 10 10 11 10 9 8 7 7 6 5 4 3 2 1 0
16 19 18 16 17 17 17 18 17 16 17 15 13 13 11 11 10 8 6 6 9 10 11 12 13 14 15 14 13 13 12 13 13 14 14 12 13 13 9 8 9 8 7 8 8 9 9 9 11 10 10 11 12 9 8 10 9 9 9 8 8 8 7 7 6 4 4 5 5 5 6 9 10 10 10 10 10 9 8 7 7 6 5 4 3 2 1 -0
17 19 18 16 17 18 18 18 13 10 14 15 12 11 10 10 10 9 8 7 8 10 10 11 12 12 13 14 13 12 13 13 13 13 14 13 12 12 8 6 7 8 8 9 8 7 8 8 9 10 10 11 9 6 5 7 7 8 8 7 7 7 8 8 8 5 4 4 4 3 5 8 10 10 10 10 10 9 7 6 6 6 5 4 2 1 0 -1
18 18 17 16 17 18 18 18 14 12 13 11 9 9 9 9 10 9 9 9 10 10 10 11 11 12 13 12 12 12 13 14 14 13 13 12 10 8 6 5 6 7 8 8 7 7 7 8 9 10 10 8 6 5 5 5 6 7 7 6 6 7 7 8 6 5 5 4 4 3 4 8 10 9 8 8 7 7 6 5 6 5 4 3 2 1 0 -1
16 15 15 17 18 18 19 18 17 16 12 9 9 10 9 9 10 10 10 11 10 10 12 12 11 11 12 10 11 13 13 14 14 12 11 12 9 5 4 5 6 7 8 8 8 8 9 9 10 11 12 11 9 9 8 7 7 8 7 6 6 5 5 5 4 3 4 5 5 5 5 8 10 9 8 7 7 7 6 5 4 4 4 3 2 1 0 -1
16 15 15 16 17 17 16 15 17 17 12 10 11 11 10 10 9 9 10 10 9 10 11 11 10 10 10 10 11 11 10 13 14 11 10 10 8 5 4 5 5 6 6 6 6 8 9 9 9 11 13 13 13 13 12 10 8 8 7 6 5 5 5 6 5 4 5 4 3 5 7 9 11 10 9 9 8 8 7 6 5 4 3 3 3 2 1 -0
17 18 17 17 16 14 12 10 13 16 14 12 13 12 11 12 10 8 9 10 9 9 10 10 9 10 11 10 12 12 10 11 11 11 11 10 8 5 4 4 5 5 6 5 5 7 7 7 8 10 12 12 13 14 12 10 9 9 8 7 6 5 5 6 5 5 5 4 3 5 7 8 9 9 9 10 9 9 8 8 7 5 5 4 3 2 1 -0
17 18 17 17 17 16 14 12 12 15 13 13 15 13 11 12 11 9 9 9 9 9 10 10 10 11 12 12 12 13 11 10 10 11 11 9 7 5 3 4 5 5 5 5 5 6 7 8 7 8 9 10 10 10 9 8 8 9 8 8 7 5 4 4 6 6 5 5 6 8 7 6 8 9 9 10 9 9 9 8 7 7 6 5 3 2 1 -0
16 17 13 13 16 17 16 14 13 13 12 12 13 12 12 12 12 12 11 9 8 9 10 11 10 11 12 12 13 14 11 11 12 11 9 8 7 6 5 4 4 4 5 5 5 5 7 8 7 6 8 8 7 7 7 7 7 7 7 7 6 5 4 4 5 6 5 6 8 9 8 7 8 9 9 9 9 8 8 7 7 6 5 4 3 2 1 0
13 15 11 10 14 15 13 12 12 13 13 12 13 12 12 13 13 12 10 9 10 9 10 13 13 11 11 11 12 13 13 13 14 12 10 9 7 7 8 7 5 3 4 5 4 5 7 8 6 5 7 8 7 7 7 6 6 6 6 6 6 5 4 4 5 5 5 6 7 7 7 7 7 8 8 8 8 7 7 6 5 5 5 4 3 2 1 1
15 16 14 12 13 12 11 10 12 14 13 12 13 13 12 13 14 12 10 11 13 11 9 12 13 11 10 10 11 13 13 13 14 12 10 10 9 8 9 10 7 3 3 5 4 4 6 7 6 5 7 8 8 8 7 6 6 7 7 7 6 5 5 4 3 4 4 4 5 5 4 4 6 7 7 7 7 6 6 6 5 5 5 4 3 2 2 1
14 13 14 16 16 12 12 12 11 14 14 13 14 14 12 13 13 12 11 10 11 12 11 12 13 11 9 9 10 12 11 10 11 11 10 11 11 9 9 9 7 5 4 4 4 5 5 6 6 6 8 9 8 7 8 7 7 7 8 8 7 6 6 5 4 3 4 5 5 4 4 6 8 9 8 7 7 7 7 7 7 6 6 4 4 3 2 2
13 12 12 16 17 13 12 12 12 13 15 14 13 13 13 13 11 11 13 10 7 9 9 9 11 11 10 11 11 10 9 8 8 8 7 8 8 8 8 7 7 7 5 3 4 4 4 6 6 6 8 10 8 6 7 7 9 12 12 12 11 9 8 8 6 5 5 6 7 7 8 10 11 10 9 8 8 8 8 9 8 7 6 5 4 4 3 3
Height
839 839 838 839 839 839 838 838 838 838 838 839 839 839 839 840 840 840 840 840 840 840 840 840 839 839 839 838 838 838 837 836 835 833 834 842 844 842 840 838 835 832 831 831 830 829 830 830 829 827 827 828 831 832 832 834 836 839 852 864 871 876 875 871 873 873 874 877 880 885 887 890 897 898 896 898 900 900 902 903 902 903 903 904 906 907 907 907
840 839 839 839 839 839 839 838 839 839 839 839 840 840 840 841 841 840 840 840 840 840 840 840 839 839 839 838 839 838 838 838 835 835 839 844 843 840 839 836 834 832 831 830 829 830 830 831 830 828 829 832 836 835 835 837 839 848 861 867 872 875 872 868 870 871 872 877 882 885 887 887 891 895 894 898 904 902 902 906 906 905 906 906 905 905 905 905
839 839 839 840 840 840 839 840 840 839 839 840 841 841 841 841 842 841 841 841 841 841 841 840 840 839 839 839 839 838 839 837 836 839 843 844 841 840 838 835 834 832 830 829 828 829 830 831 830 829 831 836 840 838 839 841 845 854 861 867 873 871 869 870 870 871 872 876 880 882 885 886 889 891 892 897 903 903 902 904 905 906 906 906 905 905 904 904
840 840 840 840 840 841 841 841 840 840 840 841 841 842 842 842 842 842 842 841 841 841 841 841 840 839 839 838 838 839 838 838 842 846 846 843 842 841 838 836 834 832 830 829 828 829 829 830 830 830 834 841 845 842 845 846 848 855 859 865 871 870 870 872 871 872 874 875 877 882 883 885 890 890 892 895 896 900 902 899 898 901 904 905 905 904 903 903
841 841 841 841 841 841 841 841 841 841 841 842 842 843 843 843 843 843 842 842 841 842 841 841 841 839 838 838 839 839 839 845 850 849 847 844 843 841 839 837 834 833 831 829 829 829 830 831 830 833 839 845 848 847 851 851 850 858 864 865 867 869 871 872 873 873 875 877 879 882 881 884 891 891 894 893 886 891 897 896 896 898 901 903 903 903 904 903
841 842 842 842 843 842 842 842 842 842 843 843 843 844 844 844 843 843 842 842 842 842 842 842 841 839 838 838 839 838 842 853 854 849 848 846 844 842 841 838 835 833 831 830 830 829 831 832 832 838 845 850 853 853 855 854 853 860 868 868 868 868 868 871 873 873 875 876 877 880 882 887 891 891 896 895 889 891 894 895 897 898 900 900 902 903 903 904
842 843 843 843 844 844 844 844 844 844 844 844 845 845 845 844 844 843 843 843 843 843 842 842 841 840 840 839 839 840 846 854 854 850 849 847 845 844 842 840 836 833 830 831 831 832 834 834 837 843 848 853 855 856 856 856 855 860 868 869 869 868 868 872 874 874 874 874 877 882 884 888 888 888 894 896 895 896 895 896 898 899 900 901 902 902 902 903
843 844 844 844 845 845 845 845 845 845 845 845 846 846 845 845 844 844 844 844 844 843 843 842 841 841 841 841 841 845 851 855 853 851 850 848 846 844 842 840 837 833 831 834 834 834 836 838 842 845 850 855 855 856 857 857 858 862 868 869 870 870 871 875 876 876 877 879 884 885 885 888 890 889 894 898 897 897 897 898 899 899 901 901 901 901 902 901
844 844 844 845 845 846 846 846 846 846 846 846 846 846 846 846 845 845 845 845 844 843 843 842 842 842 841 842 842 847 854 855 853 851 850 849 847 845 843 841 838 834 833 836 836 834 837 842 844 844 849 855 855 857 858 858 861 864 867 868 869 871 874 877 877 879 880 883 884 884 890 894 893 892 895 899 898 898 899 899 899 900 900 901 900 900 900 900
844 845 845 846 846 847 847 847 847 847 847 847 847 847 846 846 846 846 846 845 844 843 843 842 842 841 842 842 842 850 857 855 853 852 851 850 848 846 844 842 840 837 836 838 837 838 839 842 844 843 847 853 856 859 859 859 862 864 866 869 870 871 873 874 876 881 880 883 882 881 892 895 893 893 893 898 899 898 900 900 900 899 899 900 899 900 899 898
845 846 846 846 847 847 847 847 847 847 847 847 847 847 847 847 847 847 846 846 846 844 844 843 843 842 843 844 846 854 858 855 854 852 851 851 849 847 845 845 843 841 840 841 842 843 843 843 844 844 848 854 857 860 860 860 863 864 866 869 872 872 873 873 875 879 877 881 884 882 893 898 895 892 888 893 897 898 899 899 900 899 899 899 899 899 898 897
846 846 846 847 847 848 848 848 848 848 848 848 848 847 847 847 847 847 847 846 846 845 845 844 844 843 843 844 850 857 857 855 854 853 852 851 850 849 848 847 846 845 845 845 846 846 845 845 844 846 853 857 860 863 861 862 864 865 866 868 873 873 873 872 873 876 874 879 885 884 888 892 892 890 887 892 895 897 898 898 899 898 898 898 898 898 897 896
846 846 847 847 847 848 848 848 848 848 849 848 848 848 847 847 847 848 847 847 847 846 846 844 843 842 842 849 856 857 856 856 855 854 853 852 851 850 850 850 849 849 848 847 849 848 846 846 845 850 856 858 862 864 861 863 864 866 871 872 874 875 873 872 874 875 873 878 885 882 877 876 884 890 890 893 894 896 897 897 898 897 898 898 898 898 896 895
847 847 847 847 848 848 848 849 848 849 849 849 848 848 848 847 847 848 847 847 847 846 846 845 844 842 845 854 859 857 857 857 855 854 853 853 852 851 851 851 851 851 850 850 851 850 849 848 847 851 858 861 863 862 863 868 868 870 874 877 883 880 873 874 876 875 874 880 884 881 876 872 880 891 892 893 893 894 895 895 897 896 897 897 897 897 895 893
847 847 847 847 848 848 849 849 849 849 849 849 849 848 848 848 847 848 848 847 847 847 846 845 845 844 849 857 858 857 858 856 855 855 854 854 853 852 852 852 853 853 852 852 852 852 852 849 851 858 863 864 865 865 870 874 875 878 874 874 886 886 878 878 877 876 876 880 882 879 877 872 877 888 890 892 892 892 893 894 895 895 896 896 895 895 893 891
847 847 847 848 848 848 849 849 850 850 850 850 849 849 848 848 848 848 848 848 847 847 846 846 846 845 852 859 857 857 858 857 857 856 855 854 853 853 853 853 854 854 854 854 854 853 853 852 857 866 869 869 873 874 873 874 876 885 883 877 882 885 884 881 876 879 879 877 878 878 878 871 873 885 888 891 892 891 893 892 893 894 894 894 893 893 892 890
847 847 847 848 848 849 849 850 851 850 850 850 849 849 849 848 849 848 849 848 848 848 846 848 847 846 853 858 858 859 859 859 858 856 855 854 854 854 853 853 854 854 854 854 854 854 855 859 864 870 876 879 884 878 870 872 875 883 889 885 886 890 890 884 878 879 879 879 879 879 880 872 873 885 888 888 890 890 891 891 891 892 892 892 891 891 890 889
847 847 848 848 849 849 850 851 851 851 851 851 850 850 849 849 849 849 850 848 848 847 846 848 847 850 858 860 860 861 860 859 858 856 855 854 854 854 853 853 854 854 855 855 857 859 860 866 871 873 879 884 888 883 875 881 884 884 887 885 889 894 893 889 883 880 880 881 880 878 876 870 873 886 888 886 889 889 888 889 889 890 890 889 889 889 887 887
847 848 849 849 850 850 851 852 852 851 851 850 850 850 850 850 850 850 850 849 852 853 855 857 854 857 863 862 862 862 860 860 858 857 855 855 854 854 854 854 855 855 857 861 863 867 868 871 876 878 884 887 890 891 888 890 890 887 891 892 893 894 892 890 884 883 884 882 878 875 872 869 872 881 885 885 886 887 887 887 888 888 888 887 886 886 885 885
848 849 850 850 851 851 852 851 851 851 851 850 850 850 851 852 854 856 856 855 860 863 863 864 862 862 863 863 862 860 860 860 858 858 856 854 854 854 855 856 857 858 863 868 868 872 874 875 883 886 889 890 890 894 894 894 896 894 895 895 893 892 891 887 883 883 884 881 876 873 873 871 870 875 882 883 885 887 886 886 886 886 885 885 884 883 883 883
849 849 850 851 851 851 851 851 851 851 850 849 849 850 851 853 855 859 862 863 865 865 864 864 863 863 863 864 863 861 861 859 857 857 855 855 854 854 858 860 860 863 871 875 873 875 875 878 887 890 891 893 893 896 893 892 896 896 893 892 890 889 887 885 886 884 883 885 879 874 876 872 867 871 878 882 882 882 882 882 883 883 883 882 882 881 880 881
849 850 851 851 851 852 851 851 851 850 850 849 848 850 852 852 852 854 857 864 867 864 864 864 863 864 864 863 863 862 862 859 858 857 856 855 853 856 863 866 867 870 876 876 873 875 879 883 888 890 892 893 893 894 891 892 894 893 892 893 891 890 889 883 883 883 885 887 878 872 876 870 865 872 877 878 878 876 877 878 878 878 880 880 879 879 878 879
850 851 851 851 852 852 852 852 851 851 850 849 849 850 852 852 853 853 853 860 866 865 865 865 865 865 864 864 863 862 862 864 864 861 859 857 857 862 865 869 873 875 877 875 870 870 877 885 887 889 891 888 889 892 893 892 892 893 895 893 891 893 894 886 881 882 883 886 881 875 873 866 865 872 874 876 876 874 875 876 877 877 876 876 876 876 876 876
851 852 852 852 852 852 852 852 852 852 851 850 850 851 853 853 853 853 855 863 867 866 866 866 866 866 865 865 864 863 864 867 868 865 862 860 863 866 867 871 875 878 882 879 874 873 879 885 887 888 888 887 889 891 895 894 890 895 895 890 888 889 893 891 888 887 883 882 882 878 869 859 865 872 869 873 876 875 875 874 875 875 874 874 874 874 874 874
852 852 852 852 852 852 853 852 852 853 851 852 852 852 853 853 854 853 856 865 868 866 866 866 866 866 866 866 864 865 867 867 869 867 865 864 865 867 870 874 874 879 887 884 879 880 884 887 887 886 886 889 889 888 896 897 892 892 888 886 888 887 891 893 893 894 883 873 875 879 868 854 863 872 866 871 875 872 874 874 872 872 872 873 872 871 872 872
852 852 852 852 852 852 852 852 853 853 852 853 853 854 854 853 855 853 856 867 870 868 868 866 867 867 865 866 866 866 867 868 868 867 866 866 866 867 870 875 877 880 886 886 882 884 886 889 889 886 887 890 888 888 895 898 895 888 880 884 888 889 893 893 894 896 884 872 875 881 876 864 862 860 860 870 875 873 873 872 871 871 870 869 870 869 869 870
851 852 852 851 852 852 852 852 853 853 853 854 853 854 854 854 855 853 860 873 874 869 869 868 868 868 866 868 867 866 868 869 868 868 868 867 867 867 868 875 878 879 885 885 879 882 886 887 887 888 888 888 886 887 892 896 894 881 875 883 887 888 891 890 894 896 890 883 880 881 882 881 867 854 865 876 871 872 874 870 869 868 868 867 867 867 866 867
851 852 851 852 852 851 852 852 852 853 853 853 854 854 854 854 854 854 864 878 875 869 869 869 867 867 867 868 868 870 871 871 870 869 869 867 868 868 869 875 878 881 887 882 873 881 889 884 884 887 887 887 884 886 891 894 891 879 879 885 886 888 888 890 894 894 895 888 876 878 884 881 865 852 871 881 869 868 868 864 864 862 863 863 862 863 863 864
851 851 851 852 851 852 852 851 851 852 852 853 854 854 854 854 854 858 870 878 873 870 870 869 867 868 870 869 871 873 872 872 873 871 869 870 869 869 872 878 880 881 886 883 875 882 890 887 887 888 887 886 883 886 890 890 887 882 883 882 882 889 888 891 893 886 891 884 868 875 882 878 863 846 860 873 864 859 854 854 858 857 858 859 858 860 859 861
851 851 851 851 851 852 851 851 852 851 852 853 853 854 854 855 858 868 878 876 871 872 871 868 870 873 874 872 872 876 875 874 876 873 872 874 872 873 877 880 880 880 884 885 882 886 892 891 892 889 886 886 885 887 890 890 887 883 884 883 881 887 887 888 892 887 885 872 864 878 881 880 872 846 846 855 844 841 842 845 851 853 855 856 855 857 857 858
851 851 851 851 851 851 851 851 851 851 853 853 853 854 854 858 866 875 879 874 870 873 870 871 876 877 877 876 874 877 878 877 878 875 873 877 877 878 879 877 878 879 878 880 882 889 894 889 889 890 888 889 887 886 889 894 893 884 886 888 877 876 880 879 883 887 874 853 862 885 884 885 878 843 832 841 838 840 840 838 841 844 848 851 852 854 854 855
851 851 851 851 851 850 850 850 850 852 853 852 854 854 856 866 872 871 873 872 870 873 872 875 880 879 880 880 879 881 881 878 880 880 881 887 888 889 888 885 885 878 872 878 881 882 887 889 892 890 888 890 886 882 885 888 890 884 887 890 877 874 876 868 872 881 868 850 866 888 881 879 871 839 827 834 834 839 840 837 838 840 842 845 849 851 851 853
851 851 850 850 850 850 850 850 851 852 852 853 855 855 861 872 872 871 874 871 870 876 877 879 882 883 882 878 879 885 885 881 882 884 888 892 892 895 898 899 899 884 874 886 888 877 876 887 893 887 885 890 886 881 881 882 886 887 889 889 881 882 879 870 877 883 871 861 873 888 883 870 853 833 827 828 826 832 837 838 839 839 840 842 845 848 849 851
851 850 850 850 850 850 850 851 851 852 853 854 854 858 867 872 871 874 875 872 877 882 882 883 883 882 881 879 882 886 883 881 885 885 885 887 885 887 891 895 899 893 886 890 894 888 878 875 880 881 883 886 887 886 885 887 891 892 897 894 885 888 887 880 883 880 875 877 880 882 875 856 836 823 822 826 829 837 840 841 843 842 843 844 844 847 847 848
851 851 851 851 851 851 851 851 852 852 853 853 856 864 870 867 866 870 869 872 880 882 882 887 884 878 880 883 886 889 884 881 886 886 884 885 884 884 888 891 896 899 892 884 892 899 886 873 878 886 888 887 887 890 893 891 891 896 901 894 887 893 894 892 894 893 899 903 894 880 862 846 835 823 829 837 836 839 842 842 846 844 844 846 845 845 845 845
852 852 851 851 852 851 852 851 852 853 852 855 860 866 868 864 865 868 870 874 878 877 879 882 880 877 877 880 883 888 887 884 886 885 885 889 889 890 894 894 897 901 894 886 890 894 881 872 883 890 888 890 890 891 895 890 886 894 896 890 896 904 899 898 903 911 920 909 889 876 856 846 841 823 829 845 837 835 840 840 842 842 842 845 842 841 842 841
852 852 852 853 852 851 852 852 853 853 852 856 861 866 869 869 872 875 878 880 879 879 877 872 873 874 872 874 878 883 886 885 885 882 883 889 887 889 895 897 899 901 899 895 892 894 887 873 882 891 884 890 897 893 895 897 891 890 889 891 902 906 903 907 907 907 916 903 884 878 864 854 850 830 824 837 833 830 835 837 839 841 841 841 838 837 837 836
852 852 852 852 852 852 852 852 852 852 853 859 863 868 872 874 879 883 884 883 881 879 876 868 870 874 873 871 873 881 884 881 881 882 882 885 883 885 891 894 899 901 902 901 892 896 898 877 878 896 890 889 899 893 889 897 898 892 891 896 899 895 896 907 905 898 906 903 887 879 872 861 853 833 816 818 820 820 825 833 835 834 835 835 832 831 832 831
852 852 852 852 852 852 852 851 853 852 855 862 863 865 874 878 883 888 888 885 881 877 874 871 873 877 877 874 873 880 884 879 880 881 878 878 880 884 890 892 897 901 902 903 895 896 902 884 874 892 897 892 894 890 885 890 898 897 896 899 899 897 900 904 908 908 906 905 895 880 865 846 832 824 813 808 812 815 818 825 826 825 826 827 826 826 827 827
851 852 853 853 851 852 852 851 852 853 858 867 868 869 877 880 884 890 891 887 882 877 875 875 876 875 876 880 879 880 884 882 881 879 876 879 879 881 891 892 893 900 903 903 899 897 903 894 877 884 897 892 882 882 879 877 887 893 893 896 897 901 907 907 913 918 909 904 907 899 873 833 811 815 813 807 811 814 816 818 818 819 821 821 822 822 822 823
851 852 853 853 852 852 852 851 859 865 865 870 875 877 880 881 882 889 892 890 887 882 881 880 878 876 875 878 879 880 883 882 881 879 876 880 878 876 889 894 892 898 900 897 898 897 898 897 887 884 884 874 870 882 885 879 882 884 884 889 891 893 901 901 905 918 919 909 905 906 888 838 805 809 811 808 810 811 815 816 814 815 816 816 818 818 818 819
851 853 854 852 851 851 851 856 872 879 871 870 877 880 882 882 883 886 889 890 887 884 885 882 880 880 877 876 879 881 881 879 879 879 875 877 879 880 891 897 895 896 895 895 900 901 900 901 898 888 878 873 878 890 893 888 889 888 886 891 895 895 894 891 893 904 915 917 912 919 905 844 801 806 810 808 811 810 813 816 813 812 813 813 814 814 815 815
852 853 852 852 852 851 852 860 872 876 874 879 885 884 884 884 884 886 887 886 884 883 883 881 880 879 876 878 881 880 878 876 875 877 876 878 885 892 898 900 897 896 896 897 900 901 900 900 896 883 874 880 890 895 895 894 892 888 888 893 896 894 890 890 896 902 905 907 908 919 905 841 797 808 814 811 815 815 814 816 813 811 812 812 812 811 811 811
854 854 853 851 851 850 853 859 862 866 876 885 884 882 884 885 884 884 883 882 882 882 879 878 880 879 879 883 881 878 879 874 871 877 881 880 888 898 902 900 898 897 896 895 896 896 893 893 891 878 866 867 874 878 882 888 890 885 886 893 893 895 901 902 908 914 905 894 896 903 887 834 799 807 814 812 816 813 811 814 813 811 809 807 807 807 807 807
854 854 854 853 851 851 857 862 861 863 876 884 880 879 882 882 884 884 882 882 884 883 879 878 882 882 882 885 881 881 884 877 873 880 884 885 892 901 903 901 900 899 899 900 899 895 893 894 890 878 868 865 860 856 860 870 881 883 884 891 892 894 897 893 901 911 899 893 900 892 860 818 795 801 806 807 810 806 804 808 809 808 805 802 803 801 801 803
852 853 855 854 854 856 862 869 867 863 872 877 874 878 880 877 882 886 883 881 883 884 881 880 883 882 881 882 878 878 883 883 881 881 881 883 892 901 903 902 902 901 900 902 902 899 901 902 895 882 873 867 858 853 860 869 874 874 877 884 887 891 893 890 896 898 890 895 896 871 847 827 808 804 805 801 801 800 798 798 799 800 799 797 798 797 797 798
852 853 857 855 855 858 861 868 868 864 869 870 866 872 878 876 880 884 882 882 883 884 882 881 882 878 875 877 876 874 881 885 884 882 882 886 894 903 905 903 903 902 901 903 902 901 900 895 894 892 881 872 868 865 871 878 875 869 871 874 877 887 895 893 886 878 878 885 867 838 841 844 820 805 804 798 796 795 794 794 794 793 792 792 793 794 794 793
854 856 861 860 857 858 859 863 867 867 870 872 869 872 876 876 877 875 877 883 885 883 879 877 879 876 874 875 872 872 880 882 879 881 885 890 896 900 901 903 905 903 902 904 903 903 899 891 893 897 885 879 884 880 876 881 879 873 873 873 874 883 890 885 874 869 873 870 842 821 833 838 817 804 803 797 795 794 791 791 792 790 789 789 790 790 790 789
857 858 864 864 860 863 866 869 870 868 869 871 871 872 873 872 871 872 877 881 881 882 880 872 871 875 877 879 874 871 874 871 869 875 882 887 893 895 893 894 901 906 905 903 904 905 899 891 897 901 888 879 880 878 877 882 880 873 869 868 870 876 881 879 870 867 871 864 844 834 840 836 819 807 804 798 794 794 791 790 791 789 786 785 786 786 784 783
854 854 859 863 863 867 871 872 870 867 869 873 868 869 873 870 866 871 877 875 869 876 881 872 868 873 878 880 877 871 871 869 867 872 878 880 884 888 884 880 891 906 907 902 905 907 898 892 897 901 888 872 869 871 873 877 876 869 859 857 864 869 873 877 874 872 874 866 853 850 853 842 819 805 804 800 794 794 791 787 787 783 781 781 781 780 779 777
851 852 854 856 859 867 869 870 871 867 867 869 866 866 870 867 866 869 872 874 872 871 875 871 868 874 880 881 877 872 874 877 874 874 877 876 875 879 879 877 885 897 903 905 904 903 901 896 897 898 883 865 868 873 870 870 871 864 852 845 852 860 860 860 865 867 863 853 848 853 852 829 802 794 798 796 791 790 785 779 778 776 774 776 776 773 771 770
852 852 853 852 857 867 869 869 872 868 863 864 865 866 865 865 870 870 865 873 880 876 876 876 873 874 875 874 874 875 878 882 880 880 882 881 880 880 880 882 884 887 896 906 904 904 906 896 893 899 882 861 869 877 872 867 853 833 825 822 827 841 845 843 848 850 847 842 838 835 823 801 788 789 791 787 785 783 777 771 771 769 767 769 769 766 764 762
Wind_Speed
8 10 12 11 11 11 12 12 10 9 9 10 9 9 9 8 6 5 5 5 6 5 4 4 4 5 6 6 6 8 17 25 28 33 28 20 25 23 20 18 16 14 9 5 5 4 3 5 7 5 7 6 4 3 5 5 4 5 4 5 3 2 2 3 5 4 4 3 2 1 5 12 7 3 6 6 8 8 8 7 7 10 10 10 12 13 13 12
8 10 11 11 10 10 10 10 9 8 8 9 8 8 7 6 4 5 5 5 5 3 2 3 3 5 5 4 2 2 8 18 27 29 26 23 24 21 18 17 14 11 8 5 5 5 3 3 6 7 6 4 4 4 4 3 5 4 4 5 2 4 3 4 5 4 4 5 4 2 4 7 6 6 5 4 4 7 9 5 4 8 6 8 11 13 12 10
9 10 10 10 10 9 8 8 8 8 9 9 9 8 7 5 3 4 3 1 1 0 1 3 5 6 5 5 5 2 2 10 19 19 23 25 24 22 20 16 13 11 8 7 6 5 4 2 4 8 6 5 4 4 5 4 4 3 4 5 2 5 3 2 3 5 7 8 7 3 2 4 2 3 4 6 7 4 6 5 3 5 5 5 7 12 13 10
9 10 10 10 9 8 7 6 8 10 12 12 11 10 7 5 4 2 2 2 1 0 2 4 5 6 8 7 6 4 3 6 9 13 22 24 23 22 19 16 12 10 8 10 11 9 9 7 8 8 6 5 4 4 5 4 2 3 3 5 5 5 4 0 4 6 7 8 8 5 4 5 2 2 5 9 7 1 6 7 6 8 8 6 6 10 12 10
9 10 10 10 9 8 7 8 11 14 16 15 13 10 8 7 6 5 2 3 4 3 3 3 1 3 7 10 9 5 2 5 5 15 22 22 22 20 18 17 11 7 6 11 13 12 11 8 8 7 6 4 5 5 4 5 4 4 3 6 7 5 4 2 5 6 6 8 8 6 5 4 1 3 3 6 4 4 6 5 7 9 10 9 9 10 11 10
10 10 10 10 11 11 12 13 15 16 16 13 11 8 7 8 8 7 7 9 8 8 11 14 12 12 8 3 5 3 5 3 8 17 20 20 20 18 17 18 13 7 6 12 15 14 10 7 7 5 4 4 4 4 2 5 4 4 2 3 5 5 6 4 3 5 6 8 7 6 4 3 4 3 1 2 3 4 4 7 10 11 14 14 13 12 11 10
10 9 9 11 12 14 15 15 15 14 13 11 8 7 7 8 9 9 9 9 7 9 14 14 10 13 16 16 16 12 8 1 11 17 18 18 18 16 15 18 18 12 11 16 17 11 8 9 7 4 5 4 3 3 3 5 6 6 3 3 3 4 7 5 3 5 6 7 6 5 6 4 5 3 2 3 2 3 7 12 14 15 16 16 14 12 11 11
9 8 9 10 11 11 11 11 11 11 10 9 7 7 7 8 10 11 10 7 4 5 7 5 2 2 6 10 13 11 5 4 14 17 16 15 16 15 14 19 22 20 21 21 13 6 6 8 5 3 5 3 3 3 3 5 7 5 4 3 2 2 6 6 6 7 7 7 5 7 6 3 5 5 4 3 4 4 8 12 15 15 14 12 11 11 12 11
8 7 8 9 9 7 6 6 8 9 8 7 6 6 8 9 11 13 13 11 6 2 5 5 4 4 1 2 5 5 3 8 14 16 15 13 14 16 17 21 24 26 27 23 17 11 5 3 1 4 5 2 5 3 2 5 3 2 5 4 4 3 5 7 6 7 7 5 5 7 6 4 5 4 3 4 5 5 7 9 10 11 9 7 9 11 13 12
6 6 7 9 8 6 4 4 6 7 6 5 5 7 9 10 11 13 13 13 13 10 5 3 3 6 3 1 5 5 5 9 13 13 12 11 14 20 24 25 26 27 27 24 23 15 5 4 4 7 7 3 5 3 2 5 2 3 6 5 5 4 3 5 5 6 5 3 3 6 6 5 4 2 1 6 6 6 7 7 6 8 7 6 7 11 13 13
6 6 7 8 8 6 3 3 4 5 4 4 5 7 10 11 11 10 9 10 10 12 12 12 10 12 16 11 7 5 5 10 13 12 10 9 14 19 23 25 26 29 27 22 21 15 6 7 8 7 4 3 4 4 4 2 2 3 7 6 5 3 2 4 5 6 4 2 2 9 7 2 2 2 4 8 7 7 8 7 6 6 6 6 7 10 12 14
6 6 7 8 8 6 3 4 4 4 3 4 4 6 8 9 7 6 7 9 8 7 7 8 4 6 19 17 6 5 7 12 11 8 8 8 12 14 18 22 24 26 25 21 17 17 9 6 8 7 1 3 3 3 3 1 3 4 6 6 4 7 3 3 2 1 3 2 5 10 5 2 3 5 5 9 8 7 8 7 7 6 6 6 6 7 11 15
6 6 7 8 7 5 5 4 4 4 3 4 5 6 6 5 3 3 6 8 7 6 6 11 5 4 7 8 4 6 9 12 8 4 7 8 9 12 15 17 18 20 22 22 19 18 15 12 16 10 2 5 2 0 2 4 5 3 4 4 2 7 3 4 4 2 4 3 9 6 3 5 6 5 4 9 9 8 8 7 7 6 6 6 6 6 9 15
6 6 7 7 6 6 6 5 6 5 5 5 6 8 7 5 5 5 5 4 2 2 2 7 7 8 8 3 2 8 9 10 8 6 6 5 6 9 11 12 14 14 15 19 20 19 18 18 20 10 3 5 1 1 4 5 5 2 3 3 3 3 4 7 4 2 5 3 8 1 4 5 6 6 7 8 9 10 9 8 7 6 6 6 6 6 7 13
7 6 7 7 7 7 7 6 5 4 4 4 4 6 7 6 7 6 5 2 2 2 2 5 6 8 8 2 1 7 9 10 11 10 7 4 5 6 7 8 11 12 11 12 14 17 18 17 15 6 2 4 4 5 4 4 4 3 2 3 3 1 4 8 4 3 5 2 3 1 4 5 5 7 9 8 9 10 9 8 8 7 8 7 7 7 6 11
6 6 8 9 8 8 6 4 4 4 4 5 6 5 4 5 8 7 6 5 5 5 4 7 5 7 6 1 2 5 7 9 11 9 5 3 4 5 7 5 6 9 10 11 9 10 16 15 9 4 3 5 5 4 3 4 4 3 2 2 4 2 4 6 3 2 4 1 3 3 2 5 4 6 8 8 9 9 8 8 8 8 8 8 7 7 7 8
6 8 9 9 8 6 5 6 7 8 10 11 12 10 7 4 5 3 4 6 8 7 6 8 4 6 5 1 1 4 6 8 11 9 5 3 2 5 8 3 3 5 6 11 11 8 11 9 4 2 5 5 3 3 4 4 5 4 3 0 3 2 3 5 4 4 6 5 4 3 3 6 6 4 8 9 10 10 9 9 9 8 8 8 7 6 7 6
8 10 11 11 11 11 10 10 10 11 11 10 10 11 13 11 5 3 3 3 2 2 5 9 6 5 3 2 1 5 8 8 10 10 7 3 2 6 7 3 3 3 2 7 11 8 6 5 4 2 3 5 5 6 5 1 3 4 4 2 3 3 2 4 6 4 6 6 5 6 5 7 7 4 8 9 10 10 10 9 8 8 8 8 7 6 7 6
12 14 16 16 15 12 8 5 4 5 4 3 1 3 8 11 10 10 14 11 3 2 2 6 4 4 0 2 4 8 8 5 7 11 10 6 3 6 10 7 4 4 3 4 6 6 4 4 6 4 4 6 5 5 3 5 6 6 5 3 4 5 3 5 7 3 3 5 6 5 5 7 7 6 9 9 9 9 9 8 7 7 7 7 6 6 7 6
17 19 18 14 10 5 1 2 1 4 5 5 4 2 2 4 6 6 13 14 5 2 3 2 1 4 1 3 6 9 4 1 5 13 17 9 2 5 9 8 7 7 5 1 3 4 4 6 6 3 3 7 4 1 0 4 5 4 3 3 5 5 5 6 6 5 2 4 5 5 6 9 8 8 10 8 7 8 9 8 8 8 7 7 7 7 7 6
20 18 12 7 4 4 4 1 1 3 3 5 5 3 2 2 4 1 2 6 3 4 5 2 2 4 2 3 8 8 1 1 7 17 21 10 2 4 6 6 7 6 4 1 1 4 5 7 3 2 4 4 1 2 3 3 1 1 2 1 4 4 7 8 5 4 3 4 6 5 5 10 9 8 8 7 8 10 11 10 9 9 8 7 7 8 7 5
18 10 6 5 6 5 3 2 1 2 2 3 6 7 4 4 7 7 4 4 2 5 6 4 4 3 2 2 8 7 2 4 8 15 20 12 5 3 2 5 7 2 5 3 2 4 6 4 3 4 3 2 4 5 7 6 3 2 2 1 4 4 6 7 3 2 3 2 6 6 5 9 9 7 7 8 10 9 9 10 9 9 9 7 7 8 6 5
13 4 3 4 5 5 4 3 3 3 4 9 13 12 9 9 10 7 5 5 0 4 4 4 4 4 4 3 9 8 5 5 3 10 18 12 5 3 4 5 5 3 5 5 3 3 4 0 3 0 4 5 4 5 7 5 3 2 1 1 4 3 2 4 4 5 6 3 5 6 7 8 5 3 5 7 8 5 5 8 8 8 9 8 8 7 6 6
8 1 1 2 4 5 5 3 4 6 8 12 15 14 12 11 9 5 4 4 1 1 1 1 1 1 1 2 8 6 3 3 1 6 15 9 2 2 4 4 5 4 4 4 7 6 2 2 1 5 7 6 3 4 6 4 4 3 3 2 5 5 2 5 5 8 9 4 2 5 7 6 2 1 6 4 4 5 4 6 7 7 7 7 6 6 6 6
5 1 0 2 3 4 3 3 4 8 9 11 14 14 12 9 4 3 3 4 2 3 3 1 1 0 1 3 6 2 2 3 1 3 10 7 2 2 3 2 4 2 3 2 8 6 1 3 1 5 6 6 4 3 3 3 4 5 3 4 5 6 6 7 6 7 6 4 2 5 5 5 2 3 7 3 3 7 4 5 9 8 7 6 6 6 6 5
3 1 2 2 2 2 1 2 3 6 6 7 12 12 9 5 2 2 3 5 2 4 3 1 0 2 3 5 6 1 3 3 2 2 7 8 3 3 3 1 2 3 6 2 3 3 1 3 3 5 4 5 5 2 1 3 4 4 4 4 4 5 6 7 5 3 2 4 3 4 2 5 4 4 7 4 6 9 6 7 10 8 7 7 6 7 6 5
2 1 1 1 1 1 0 2 4 4 2 4 10 9 6 4 3 2 3 5 2 2 1 1 1 3 2 4 4 3 2 3 2 3 7 8 5 3 4 1 1 2 3 2 3 1 1 3 5 5 5 4 4 3 3 4 4 4 4 2 6 8 8 7 3 1 2 4 4 3 3 3 5 5 4 1 5 8 9 10 11 9 9 9 8 7 6 6
2 0 1 1 1 1 0 2 5 3 2 6 10 7 4 3 2 2 5 3 2 0 2 1 0 2 2 4 6 4 1 2 2 2 5 9 6 3 4 2 4 2 1 4 1 3 1 0 0 3 4 2 1 2 5 5 2 7 6 6 8 7 7 5 2 3 2 2 5 4 1 1 6 5 2 1 3 7 10 13 13 12 11 10 10 8 7 6
1 0 1 1 1 0 1 2 4 3 3 8 10 6 4 2 1 4 5 1 2 1 1 1 1 2 4 5 6 4 2 2 2 3 5 8 7 5 4 2 7 5 2 4 3 3 0 2 4 6 3 2 4 5 5 6 3 6 6 9 6 1 2 1 3 2 2 3 4 5 1 1 6 5 1 1 3 7 9 10 11 11 11 10 10 8 7 6
1 1 1 1 1 1 1 2 3 3 4 8 9 6 3 1 4 6 2 2 0 0 1 1 1 2 5 4 4 5 4 2 2 4 5 4 7 7 3 1 5 6 2 5 2 2 2 3 2 3 2 4 3 4 4 7 5 4 6 7 5 3 2 2 2 3 4 2 6 5 3 3 3 5 3 3 4 7 7 6 6 7 9 9 9 7 6 6
1 2 2 2 3 3 2 1 2 4 6 9 8 4 2 2 5 5 2 3 0 1 1 2 2 3 6 2 1 4 4 4 5 4 4 4 6 7 4 2 3 4 3 5 3 2 4 3 2 2 3 1 2 3 2 1 1 4 4 3 4 4 3 3 4 4 3 4 6 5 3 3 3 6 5 6 7 6 6 6 7 7 9 9 8 7 6 6
1 2 2 2 4 4 3 2 4 6 8 9 7 4 4 3 2 2 2 2 1 2 1 0 2 3 4 2 1 3 2 3 4 4 3 3 4 4 3 1 1 3 4 3 3 4 2 2 3 3 2 1 2 3 4 4 4 5 4 4 4 4 4 3 4 2 1 5 4 5 1 1 6 8 8 8 9 9 9 8 8 8 9 8 7 7 6 5
3 2 1 1 2 3 2 4 6 8 8 8 4 4 6 4 2 4 1 1 0 1 1 1 1 2 2 2 1 2 1 1 2 3 2 2 4 2 2 1 3 2 1 1 2 4 3 4 4 2 2 0 3 2 2 3 3 4 2 3 3 3 5 4 4 3 3 5 3 4 1 3 6 7 8 10 10 9 10 9 8 8 8 8 7 6 6 6
5 4 3 3 2 3 5 6 7 8 7 6 4 5 5 2 5 3 2 3 1 2 2 2 2 3 2 0 2 2 0 1 2 3 2 2 3 1 2 3 2 3 2 2 1 1 2 4 3 2 1 1 3 3 4 2 1 2 2 3 3 2 1 2 3 2 4 6 4 1 2 3 4 4 7 8 7 5 6 7 6 6 6 6 5 5 5 7
5 5 5 5 5 5 6 7 7 6 5 4 5 5 3 4 4 2 3 4 1 1 1 1 3 4 3 2 2 1 1 1 1 3 3 2 2 2 1 3 2 3 3 2 1 1 1 5 5 1 1 3 2 2 3 4 1 1 1 3 1 2 4 2 3 4 2 5 5 2 2 5 4 6 4 1 5 5 4 5 5 6 6 4 5 6 6 7
2 4 5 5 5 4 5 6 6 4 3 4 6 2 4 4 2 3 3 2 3 3 2 2 3 2 2 3 2 2 0 1 1 2 2 1 2 2 2 3 1 2 4 3 1 1 1 5 4 2 2 2 2 2 2 2 0 0 2 0 2 2 5 3 2 2 3 2 4 2 4 5 4 7 5 4 5 6 5 6 6 8 7 6 7 7 7 8
1 2 4 5 5 3 4 5 4 2 3 6 4 3 4 3 2 3 2 1 2 4 5 1 1 2 2 2 2 2 1 1 1 1 1 1 1 3 3 2 2 3 4 4 2 2 1 4 4 1 0 1 1 2 2 2 1 2 0 2 1 2 4 3 1 4 4 1 4 2 6 7 4 4 5 4 6 9 8 8 8 8 7 8 9 8 8 8
3 3 3 6 6 3 3 3 3 2 4 5 1 3 2 2 1 2 2 1 2 4 4 3 2 1 3 2 3 3 2 1 1 1 2 1 1 3 4 2 2 2 2 3 2 1 3 2 5 1 1 2 2 3 2 4 2 3 2 2 3 1 1 1 1 2 2 3 5 4 6 6 3 4 5 5 7 9 9 8 8 9 9 9 10 9 9 8
4 3 2 6 5 4 3 3 2 4 5 2 2 3 1 2 1 0 1 1 2 3 2 3 1 1 3 3 3 3 2 3 2 1 2 2 2 2 4 2 2 1 2 3 3 1 3 1 4 2 1 2 2 1 2 2 2 3 1 2 2 2 3 1 1 1 1 3 4 4 6 6 6 6 5 8 9 8 8 7 8 10 10 9 9 9 8 8
2 1 2 5 4 4 3 2 3 5 4 2 4 2 1 1 1 1 1 0 1 2 2 3 1 1 3 3 2 2 2 3 3 2 2 2 1 2 2 2 3 3 1 3 2 1 2 2 3 4 3 1 1 3 5 5 3 2 1 0 1 0 1 0 0 3 3 1 2 3 6 9 7 5 7 11 10 7 8 8 8 9 9 9 9 8 8 8
1 2 2 4 3 2 3 5 4 3 3 1 2 1 1 1 1 1 2 1 0 1 1 3 3 3 3 2 2 2 2 2 3 2 2 2 1 1 2 3 5 5 2 3 2 1 1 2 3 4 3 2 3 3 4 6 6 4 4 4 3 2 2 1 3 1 2 2 4 2 5 12 8 3 6 9 8 7 8 8 8 8 9 9 9 9 9 9
4 2 3 3 2 1 4 5 2 2 4 1 1 1 0 1 2 0 1 1 1 0 1 2 2 3 3 3 2 3 3 2 2 2 2 3 2 2 1 3 4 5 4 2 2 2 2 3 1 4 5 3 3 1 3 4 4 5 3 3 4 4 5 3 3 3 1 2 2 3 2 11 6 4 5 6 6 7 7 8 9 9 9 9 9 10 10 9
3 2 1 4 2 1 6 3 3 3 1 2 1 1 0 1 2 0 1 1 1 1 1 0 2 2 2 2 2 3 3 2 3 3 2 2 1 1 1 3 3 4 4 2 2 1 1 3 1 5 5 2 1 2 2 3 3 2 2 3 4 3 4 5 5 3 2 3 3 3 3 10 6 3 4 4 5 6 7 7 9 9 8 9 10 10 9 9
2 3 0 5 3 2 3 2 2 0 2 2 2 1 1 1 2 2 1 2 1 2 1 1 1 1 1 1 2 2 3 2 2 2 1 2 1 1 1 2 1 2 1 2 3 1 1 1 1 3 6 5 3 3 4 3 1 2 3 3 4 4 6 4 2 3 1 5 7 4 5 10 7 0 0 4 5 7 8 8 8 9 9 9 9 9 9 9
2 0 2 4 6 5 2 3 5 4 2 1 1 2 1 0 1 3 3 2 2 3 2 1 1 1 1 2 2 1 1 0 1 0 1 1 1 2 2 1 1 2 2 2 2 2 1 2 2 2 2 4 4 4 4 2 2 2 2 4 4 6 9 5 2 3 3 4 7 6 7 12 13 9 8 9 8 10 11 9 8 9 10 9 8 8 8 8
2 1 2 5 6 6 2 1 5 5 4 3 0 2 2 1 2 1 2 2 2 2 1 1 1 2 2 1 1 1 2 1 1 1 1 2 2 2 1 2 2 1 2 2 3 3 2 1 3 5 6 6 7 7 2 2 2 5 5 6 6 6 7 6 4 4 5 3 4 10 12 15 21 19 16 15 13 13 13 10 8 9 10 10 9 8 8 8
1 1 1 1 3 3 3 3 4 4 3 4 2 2 3 2 2 1 1 1 1 1 1 0 1 2 2 3 2 2 2 1 1 1 2 3 2 2 1 2 2 1 3 3 1 3 4 2 5 7 10 11 10 10 6 3 6 10 9 7 8 8 8 8 7 8 5 3 6 12 10 10 19 20 17 19 18 15 14 13 12 12 11 9 8 8 9 9
0 2 2 1 1 1 1 1 3 5 2 2 2 1 3 2 1 2 2 1 1 1 1 0 2 5 6 5 3 2 1 1 2 2 2 2 1 1 2 0 0 1 2 2 2 4 5 4 4 4 8 11 9 12 11 7 8 10 10 10 9 9 11 14 16 11 7 5 14 13 7 10 19 21 20 21 19 17 17 15 12 12 12 10 8 8 10 10
2 1 1 2 0 3 1 1 4 6 3 2 1 1 4 5 5 4 2 2 2 2 2 2 5 6 6 4 3 3 3 1 2 3 3 3 2 2 0 2 1 1 2 2 1 1 4 3 4 2 7 11 9 11 10 6 6 9 12 13 11 11 14 16 17 13 9 13 20 19 18 19 21 22 22 21 19 16 15 13 11 13 13 11 9 10 11 11
1 2 1 3 3 1 1 2 4 5 2 0 1 2 4 6 6 4 2 4 2 2 2 4 7 5 5 5 5 4 6 5 2 3 4 4 2 3 3 3 3 1 1 2 0 1 2 3 1 2 4 9 6 4 4 4 6 11 16 14 10 9 11 13 13 10 8 14 20 18 17 18 19 19 18 18 16 13 13 13 12 13 13 11 10 11 12 13
2 3 4 4 2 1 1 2 4 4 1 1 3 4 3 5 7 4 2 2 3 4 5 6 5 2 3 4 6 6 7 6 4 4 5 6 3 3 3 3 6 5 3 3 1 1 2 2 2 5 3 6 1 5 8 8 8 11 17 17 9 7 7 8 7 7 9 11 12 9 9 13 15 13 10 12 13 13 15 16 13 12 11 10 11 13 13 13
4 3 3 5 2 1 0 2 3 2 2 3 4 4 3 4 6 5 3 1 1 2 4 6 5 4 3 3 7 7 4 6 6 4 4 4 2 2 1 2 6 7 6 5 1 1 4 2 1 3 2 6 3 6 10 10 8 7 9 9 7 6 6 5 5 9 11 8 5 5 9 13 14 12 12 14 15 15 16 15 11 12 12 10 11 14 14 14
Wind_Direction
103 94 88 86 85 80 78 80 90 109 123 128 121 111 102 93 75 62 79 87 92 102 115 133 136 129 125 110 90 64 42 45 47 41 39 14 357 0 358 358 355 353 0 356 15 46 43 360 350 28 62 43 17 341 1 18 36 56 75 82 100 136 135 162 177 174 129 155 216 40 112 125 135 157 130 82 62 82 76 59 63 65 71 96 115 120 114 111
97 89 87 84 79 73 72 75 85 104 123 132 123 111 97 86 74 78 99 99 96 98 131 178 179 173 172 166 169 70 39 37 40 33 22 8 6 9 4 6 4 360 10 24 28 42 63 342 2 59 68 33 2 356 7 11 42 73 110 85 153 186 159 172 167 162 133 145 158 91 113 127 140 168 150 115 117 105 92 73 73 83 85 106 115 115 112 109
92 87 86 81 73 68 67 72 87 104 118 125 114 104 92 88 92 104 129 97 55 305 223 218 205 207 220 215 229 245 284 26 36 19 3 6 11 12 10 9 12 13 20 42 46 61 84 58 59 73 63 42 16 18 29 16 37 72 102 80 199 187 155 202 148 133 150 149 139 125 99 71 69 154 120 129 143 132 129 143 135 133 152 141 121 113 112 107
97 92 88 79 70 62 62 75 95 107 113 114 106 95 87 83 81 92 234 271 20 275 236 221 215 238 241 227 231 238 264 28 28 348 354 6 11 15 17 12 18 27 36 62 69 81 93 88 79 73 67 47 352 25 33 357 54 65 96 132 181 165 112 168 149 131 143 141 132 131 96 77 32 48 126 137 122 158 199 188 176 167 165 157 139 119 114 113
101 94 90 80 70 63 73 95 108 112 112 109 102 88 73 63 59 54 58 99 106 129 151 141 137 264 243 236 237 243 357 44 338 340 359 6 12 19 23 24 35 45 58 81 78 83 97 88 66 56 64 57 359 27 7 340 80 62 19 141 162 155 114 149 160 130 119 112 114 123 109 116 74 33 138 149 140 207 212 195 168 156 156 153 147 130 121 123
99 95 93 87 80 79 90 105 111 112 108 103 97 81 64 54 50 57 78 97 102 114 117 108 86 70 78 133 188 164 79 95 315 344 0 5 14 21 29 38 50 78 111 90 74 75 80 58 53 52 55 60 37 56 335 331 67 91 29 114 161 162 129 151 149 122 124 116 129 147 131 121 95 60 93 130 186 197 143 136 141 143 151 148 142 137 134 139
100 98 100 99 97 93 94 102 106 105 100 94 90 75 61 52 55 74 92 102 105 119 122 118 92 70 76 82 86 81 84 91 330 350 358 5 20 22 34 47 52 81 97 70 62 70 66 58 73 87 71 71 92 76 5 360 51 91 122 131 155 136 116 132 122 109 112 113 141 136 108 122 133 125 67 81 139 119 110 126 134 141 148 144 140 144 149 153
107 106 109 112 114 105 95 97 99 99 96 91 86 70 58 60 74 86 92 97 114 147 154 161 168 66 81 82 80 72 65 340 342 355 359 10 29 25 37 49 50 66 67 54 55 79 72 70 92 119 79 66 115 91 15 43 45 71 133 152 138 104 110 122 106 102 98 97 115 97 85 137 154 127 95 138 154 122 124 127 132 138 141 142 144 152 157 160
114 116 119 123 129 125 106 98 99 99 95 87 75 62 64 76 89 90 86 82 79 142 220 233 228 221 206 89 97 78 5 343 349 356 3 16 38 43 50 49 48 58 57 48 52 69 82 80 178 141 126 147 92 74 353 69 55 138 140 151 143 128 133 128 107 114 121 124 125 87 69 126 142 92 82 199 189 148 134 130 136 136 137 149 155 163 165 168
126 129 127 132 139 143 127 106 103 98 89 71 56 61 80 95 98 95 86 75 71 76 90 103 174 205 195 57 87 81 331 351 3 0 9 29 55 58 55 50 49 54 54 48 46 48 69 115 139 126 120 115 77 58 36 91 114 137 120 124 118 123 147 119 126 152 138 130 152 116 116 161 167 47 176 218 202 155 136 139 150 141 151 169 167 177 178 183
141 138 134 142 146 150 142 119 107 90 76 50 51 77 96 106 104 95 84 79 79 77 81 84 92 99 84 71 83 84 350 3 13 7 17 51 66 57 53 52 51 53 55 50 44 39 61 133 126 105 96 70 71 48 28 79 119 102 108 103 58 25 359 66 123 174 135 61 132 120 122 184 254 293 208 190 183 161 148 158 171 158 171 181 182 193 192 201
151 148 145 149 151 155 144 127 108 86 66 43 66 102 113 117 106 88 88 97 94 81 68 45 47 94 71 62 69 71 32 22 19 18 36 64 69 59 57 58 54 52 54 53 44 43 62 146 108 74 98 116 91 42 19 26 79 90 101 110 360 3 25 16 37 187 77 87 154 119 90 294 238 258 212 165 163 162 155 169 185 181 190 193 196 203 206 217
161 160 152 148 150 151 139 129 112 96 86 74 85 104 125 141 114 103 118 114 99 86 50 23 8 200 76 57 44 55 41 27 31 64 62 67 72 69 64 60 57 51 52 55 50 51 67 99 96 88 94 99 107 291 78 40 54 63 58 97 3 8 353 316 344 355 41 147 175 129 12 279 242 250 192 160 159 157 163 185 194 193 200 204 208 212 220 225
174 168 149 140 145 145 139 128 114 108 101 88 86 91 104 125 116 116 129 145 132 77 14 34 74 105 83 96 84 48 26 19 47 72 55 62 78 72 62 55 55 49 50 54 51 56 68 80 85 88 63 76 98 346 39 15 28 48 20 47 51 30 298 312 330 14 38 165 185 162 303 268 259 238 190 175 167 162 177 196 198 200 206 212 216 217 230 231
177 166 143 141 149 144 138 128 117 121 113 83 79 87 83 98 113 108 98 108 137 120 80 66 95 95 73 89 87 33 11 19 36 37 24 28 56 50 37 41 50 52 55 54 51 53 57 66 72 65 344 26 43 46 31 360 9 31 28 331 353 49 287 314 323 59 49 200 178 52 282 270 256 218 193 184 176 173 186 200 202 206 210 214 222 223 231 239
177 158 139 142 143 138 136 129 126 132 118 87 77 71 53 104 121 97 82 82 98 132 102 55 73 101 88 75 28 18 11 14 12 18 17 7 41 20 358 13 56 64 67 60 55 43 39 52 69 63 21 18 36 66 50 16 353 1 76 249 292 318 312 320 319 45 53 14 2 31 251 275 270 213 193 185 183 184 190 205 207 209 215 216 222 227 230 246
159 140 133 137 134 131 130 125 129 122 113 100 85 69 59 99 155 117 90 88 89 111 88 45 53 98 81 18 36 360 342 347 352 9 17 1 16 358 348 349 65 72 77 51 38 24 24 34 59 55 47 37 22 73 67 15 328 327 30 245 267 269 309 321 308 331 30 40 345 332 245 261 276 217 194 191 187 189 198 209 211 212 220 221 225 229 234 244
138 130 127 127 122 117 116 116 122 119 117 109 85 71 71 74 97 113 83 114 121 83 47 20 25 88 52 355 349 313 311 327 353 11 17 7 2 15 21 36 43 31 38 32 25 21 18 20 49 63 36 27 19 55 76 317 277 278 302 317 307 291 271 297 292 311 17 10 321 316 286 270 284 238 202 202 191 194 206 209 212 216 220 223 227 229 235 241
130 126 123 120 117 115 113 111 123 140 162 192 167 77 79 70 72 69 53 58 64 16 11 341 15 113 151 329 317 310 309 329 7 16 16 11 3 44 51 43 37 54 53 25 7 16 34 31 39 48 11 354 3 62 101 225 222 234 255 250 275 290 274 268 271 269 7 335 295 279 274 274 281 240 210 210 198 201 215 213 217 222 222 227 229 231 236 241
132 127 123 118 113 102 2 304 229 203 222 234 214 130 105 68 51 31 34 50 68 97 113 299 25 99 32 335 329 329 313 328 28 19 15 9 353 50 37 20 31 52 52 30 337 1 64 65 42 41 327 310 302 83 123 230 211 214 221 235 267 284 286 273 267 270 356 349 273 238 265 277 271 239 213 204 197 208 217 216 222 223 224 227 228 235 239 240
136 130 121 98 53 7 343 301 223 208 226 233 205 134 155 159 85 150 12 52 55 68 76 13 56 87 40 317 338 349 313 333 16 14 15 14 36 41 4 10 46 36 1 320 333 352 56 77 42 261 238 269 283 109 34 28 107 185 162 248 307 297 289 290 272 274 14 19 275 258 276 275 267 243 214 190 195 213 213 211 219 221 225 229 228 234 241 249
140 126 98 55 25 18 34 83 107 153 121 143 143 111 119 136 117 141 141 95 27 29 51 30 43 43 344 340 352 3 53 24 4 2 8 12 29 52 10 37 68 43 339 16 49 11 45 81 258 257 193 123 66 66 48 42 50 32 66 36 318 289 298 305 280 276 14 21 282 298 302 277 266 238 215 199 204 218 213 209 214 214 220 228 229 234 243 257
146 100 48 42 38 51 65 72 85 114 110 111 111 107 110 109 113 125 101 101 39 358 32 29 40 6 340 7 5 18 64 49 2 339 354 7 27 73 95 63 68 46 358 28 91 82 63 73 250 22 90 85 41 30 45 36 33 26 2 355 296 290 344 307 299 328 320 274 257 296 301 283 278 229 230 222 216 238 230 220 223 215 215 220 224 228 230 237
161 26 4 50 66 71 54 60 103 106 110 114 112 115 123 116 111 107 80 86 81 325 353 347 116 82 327 351 360 19 82 64 118 326 351 19 70 52 91 106 80 52 11 53 86 93 101 256 113 66 54 72 63 16 46 39 355 309 230 225 290 298 280 251 286 329 318 298 254 311 312 294 306 230 252 242 229 259 244 224 234 230 225 229 236 235 223 221
182 237 135 86 90 80 55 77 114 109 109 116 121 127 129 124 123 115 88 69 21 307 316 299 203 97 284 345 351 5 102 40 177 306 355 30 68 25 77 116 87 94 233 83 79 90 111 277 50 65 36 53 74 25 53 79 353 319 240 215 263 284 271 266 307 340 337 332 347 19 349 297 306 247 251 244 227 247 234 222 235 237 239 240 243 241 227 219
177 189 120 91 91 77 77 129 133 122 112 120 134 140 136 130 137 146 103 60 354 290 331 318 274 1 326 340 344 40 80 359 267 345 18 22 15 96 85 359 63 154 212 181 82 129 144 359 56 94 64 42 52 20 257 117 43 328 238 206 251 274 274 284 313 357 349 291 295 69 94 272 298 262 252 235 223 243 248 242 242 239 242 238 234 232 223 222
160 151 92 84 80 41 250 179 173 154 128 156 152 146 144 137 123 126 79 41 327 257 50 254 266 25 335 337 357 99 104 301 308 40 32 22 1 91 84 349 60 103 193 115 36 277 198 22 38 71 67 46 41 358 250 136 79 278 258 348 317 300 293 290 290 198 225 278 310 45 123 257 288 268 272 244 224 251 255 249 249 242 239 239 236 230 215 214
147 151 4 4 51 329 248 157 174 174 160 172 164 153 149 147 145 96 82 65 295 160 80 277 288 21 327 7 37 91 199 311 57 347 13 38 20 54 85 132 145 110 33 98 34 285 192 187 208 103 70 53 84 261 225 142 121 259 277 319 303 286 278 268 201 200 239 351 323 316 110 249 273 270 344 47 225 259 255 245 246 240 236 236 236 232 217 217
145 200 308 330 352 233 182 163 178 182 167 166 164 169 172 159 70 60 76 131 283 40 78 336 4 316 341 15 18 26 3 12 87 307 356 43 25 43 94 162 138 123 22 83 160 231 128 233 199 135 110 234 230 241 205 156 207 268 302 310 302 292 259 197 132 158 47 31 268 260 113 46 279 268 312 50 234 250 250 245 243 239 237 234 234 231 218 222
184 219 265 287 253 185 186 215 215 186 158 162 166 173 171 97 65 63 42 242 256 345 244 2 268 325 26 34 345 3 31 357 325 342 8 31 12 31 80 188 107 111 14 36 94 221 327 307 203 131 179 215 234 270 207 175 225 312 355 324 326 17 45 79 91 93 66 329 253 221 136 104 300 276 223 202 220 216 223 244 247 241 239 234 232 227 217 221
197 208 235 259 242 233 237 240 203 167 151 159 163 148 110 47 66 91 225 243 151 291 315 17 319 17 44 84 308 359 23 341 332 10 24 7 4 14 30 21 56 62 11 6 9 308 339 344 262 263 251 162 45 330 317 161 263 16 18 338 343 348 16 30 356 40 71 283 252 199 161 145 239 268 240 226 233 210 203 227 234 231 232 232 228 221 215 218
148 179 212 252 241 242 244 201 165 152 152 158 149 97 82 47 17 161 246 313 5 275 189 67 310 40 44 54 34 334 338 350 1 50 61 32 31 18 23 103 139 33 2 320 332 336 314 252 273 307 287 131 69 357 343 357 22 30 14 15 20 350 4 9 334 1 225 260 218 175 188 241 229 254 260 254 249 229 216 218 217 219 224 230 227 219 218 216
83 99 84 295 234 225 191 158 152 148 154 154 125 56 76 86 248 216 234 342 355 297 76 87 28 87 68 25 356 302 305 358 1 43 83 96 71 27 326 167 148 78 342 252 343 352 332 294 301 330 291 151 105 93 340 327 2 12 9 54 63 30 8 335 305 323 288 273 222 156 120 275 270 274 251 246 249 231 219 217 215 217 221 226 219 211 219 218
59 67 69 71 98 140 133 133 142 147 153 142 94 55 82 143 235 207 236 252 240 354 31 81 40 50 57 62 269 287 68 311 346 35 22 43 63 32 307 329 39 79 89 95 46 63 30 308 268 185 246 65 109 159 167 150 5 308 192 118 103 123 103 279 264 285 298 296 292 79 121 222 275 281 221 228 264 253 228 228 230 239 236 226 217 214 222 223
58 73 77 76 84 106 121 131 137 145 156 122 66 71 131 221 241 185 223 234 201 12 5 45 66 56 7 313 296 315 168 268 15 54 26 39 125 166 204 294 340 82 103 87 292 157 126 273 254 215 11 110 119 210 142 106 62 271 139 92 58 177 157 172 219 212 278 316 300 275 219 214 241 270 251 281 306 287 258 251 253 258 246 221 224 227 223 225
61 72 74 69 69 89 115 133 138 142 143 91 65 89 194 228 226 177 201 170 145 156 131 40 68 95 301 298 319 351 39 264 35 58 9 66 175 181 177 233 230 126 134 132 194 154 63 280 272 19 13 103 135 201 123 74 197 78 57 129 232 165 126 111 285 301 55 350 285 282 279 286 309 295 312 10 313 281 268 258 248 248 240 223 231 232 225 226
163 88 74 51 44 72 114 130 140 140 89 85 95 202 214 221 179 173 185 99 130 134 121 144 205 170 227 255 272 288 328 296 329 106 230 231 191 176 178 230 198 179 181 148 177 196 143 285 290 77 264 296 95 125 61 13 104 106 126 216 183 84 86 96 313 344 38 279 275 300 284 296 331 308 319 347 287 269 260 250 249 251 239 229 235 234 230 228
193 149 86 37 33 67 107 120 137 117 76 79 135 241 211 203 190 148 153 125 114 94 107 187 217 189 194 201 242 233 158 203 251 137 183 228 235 163 152 191 198 221 226 119 112 191 118 292 302 3 194 292 28 75 354 342 62 109 184 172 89 67 338 37 23 340 358 298 290 288 280 281 230 240 286 284 255 257 256 245 245 248 235 231 240 239 238 236
197 168 45 15 30 65 91 144 136 78 71 92 227 247 201 208 281 187 170 146 110 107 149 215 223 88 177 177 200 198 170 197 198 159 179 200 242 167 144 172 177 229 297 91 136 202 100 129 286 317 288 308 9 85 245 285 50 60 61 42 44 144 175 177 123 164 220 286 296 307 313 292 225 208 240 259 256 252 254 248 241 241 233 230 238 240 240 236
205 129 349 352 36 63 72 114 80 60 72 174 206 209 239 239 268 292 260 241 147 149 196 210 173 149 199 195 191 179 175 196 179 172 209 196 219 213 175 160 148 164 345 47 110 168 79 138 251 303 329 324 279 214 196 182 158 106 73 356 321 85 138 197 175 149 151 184 241 307 312 285 259 204 216 251 265 251 239 242 242 240 237 236 237 238 238 233
88 84 310 339 34 25 52 71 51 61 106 155 189 186 280 173 154 329 325 358 75 224 178 164 166 179 187 187 210 192 151 183 185 173 220 210 190 225 193 149 150 160 120 56 81 166 127 162 222 293 310 260 242 230 180 173 164 150 172 191 183 155 126 42 306 278 122 158 188 163 294 281 273 181 210 246 257 248 234 232 242 244 240 242 240 236 234 230
77 97 292 1 49 320 58 68 17 61 115 158 215 205 10 104 110 16 318 20 42 262 72 127 169 176 167 169 197 179 139 176 209 183 221 212 181 219 222 125 130 133 119 122 225 216 144 115 161 266 265 244 250 326 110 152 150 138 168 176 142 134 129 136 239 256 196 195 185 116 263 273 263 158 204 239 237 246 235 218 236 250 245 244 243 238 233 230
105 171 300 41 55 56 70 65 328 19 59 250 262 311 357 99 106 123 251 273 194 177 35 280 200 190 195 175 157 168 170 195 196 186 217 214 184 240 207 115 116 108 99 132 226 233 106 86 46 273 281 321 10 359 43 70 96 134 204 161 143 154 143 155 181 186 197 213 171 115 247 269 274 164 204 246 248 259 249 225 236 250 252 246 241 239 233 228
143 187 61 31 25 72 91 157 216 355 286 304 26 333 305 104 136 154 209 246 203 159 151 225 229 205 197 126 118 175 200 202 197 195 189 174 188 321 20 68 101 117 131 192 183 173 219 159 78 329 322 343 4 342 342 357 99 207 229 171 148 119 104 116 129 97 271 220 167 153 244 262 271 128 155 276 270 263 253 238 237 246 255 252 242 240 234 228
104 119 307 2 33 71 120 180 152 147 203 63 51 248 222 61 210 178 182 209 196 171 163 251 233 127 110 93 91 126 177 192 247 302 71 154 257 327 359 13 67 133 218 219 139 121 181 196 137 101 298 299 298 301 317 309 220 208 195 178 171 140 136 151 119 105 250 227 158 172 239 267 281 295 306 294 280 276 272 257 245 247 253 255 253 248 237 229
109 40 309 336 18 58 75 121 109 121 158 140 109 255 176 175 282 239 170 183 189 164 153 290 125 94 70 104 121 236 249 310 22 107 154 203 256 302 301 103 79 149 172 113 79 86 94 225 210 188 208 229 247 259 295 40 278 263 245 205 195 183 160 133 110 169 205 182 188 225 239 271 286 290 297 297 291 290 289 284 274 267 263 259 255 250 242 234
112 163 160 334 348 38 36 17 76 98 165 173 174 220 184 191 292 310 198 220 207 149 122 48 145 156 181 163 161 227 236 357 26 156 187 197 225 307 305 110 79 198 154 102 31 91 91 284 243 209 231 244 256 271 296 344 279 265 259 228 203 193 165 155 196 210 153 110 262 247 220 250 278 285 293 296 295 296 294 291 289 284 280 271 257 248 246 241
86 176 142 89 288 183 48 358 109 97 114 173 153 166 179 188 218 207 209 337 353 229 174 262 236 208 194 171 160 191 202 310 265 220 183 177 172 7 350 30 14 257 129 59 347 108 119 261 243 199 253 264 264 272 276 271 262 260 256 244 225 199 180 195 221 216 155 198 257 263 251 261 276 285 289 289 291 293 291 291 291 287 283 275 260 251 247 244
80 109 19 15 56 178 151 88 111 105 114 135 111 178 176 189 222 227 189 79 348 286 203 226 260 237 203 176 141 162 197 202 267 248 188 165 174 138 106 250 242 350 79 91 338 129 141 249 244 190 281 280 264 264 266 253 261 269 258 242 227 213 202 210 230 227 203 234 256 268 277 276 275 278 281 283 285 286 287 289 288 283 281 273 259 252 250 248
119 155 181 41 52 113 72 56 98 112 123 109 235 232 184 184 215 235 170 146 186 254 193 214 251 238 190 170 150 185 217 190 195 257 182 148 187 193 193 207 165 79 51 135 274 291 176 262 251 113 307 287 274 295 289 240 247 272 275 265 239 221 219 223 237 235 223 245 257 267 277 277 271 269 270 274 280 283 285 284 279 275 274 269 261 256 252 253
111 130 141 108 75 347 8 47 96 118 177 252 212 224 209 202 208 196 168 181 172 177 186 198 219 194 130 169 199 231 233 191 192 245 191 167 198 209 214 203 147 136 169 179 154 146 176 271 354 59 345 282 294 6 322 293 274 270 277 277 253 211 212 219 224 208 201 232 259 277 279 271 271 271 265 265 272 280 283 282 281 277 270 257 255 259 257 253
116 83 95 103 94 292 135 91 87 123 216 231 200 201 223 235 217 176 163 297 79 160 197 188 171 131 111 206 229 237 226 190 199 227 188 166 133 101 142 147 132 138 163 169 161 160 151 157 32 61 310 272 310 341 316 314 318 286 264 250 214 198 219 236 240 219 203 210 259 266 255 265 282 293 289 281 280 280 281 283 284 283 278 265 254 257 260 256